| time (UTC) | temp F | wind direction | speed MPH | gust MPH | rain 1hr in | rain 24hr in | rain mn in | humidity % | barometer mb |
| 20260505114241 | 57 | 67 | 0.0 | 0.0 | 0.00 | 0.14 | 0.14 | 93 | 1052.8 |
| 20260505113241 | 57 | 67 | 0.0 | 0.0 | 0.00 | 0.14 | 0.14 | 93 | 1052.8 |
| 20260505112243 | 57 | 67 | 0.0 | 0.0 | 0.00 | 0.14 | 0.14 | 92 | 1052.7 |
| 20260505111243 | 57 | 67 | 0.0 | 0.0 | 0.00 | 0.14 | 0.14 | 93 | 1052.7 |
| 20260505110341 | 57 | 67 | 0.0 | 0.0 | 0.00 | 0.14 | 0.14 | 92 | 1052.6 |
| 20260505101343 | 58 | 270 | 0.0 | 0.0 | 0.01 | 0.14 | 0.14 | 90 | 1052.7 |
| 20260505100341 | 58 | 270 | 0.0 | 0.0 | 0.01 | 0.14 | 0.14 | 90 | 1052.7 |
| 20260505100241 | 58 | 270 | 0.0 | 0.0 | 0.01 | 0.14 | 0.14 | 89 | 1052.9 |
| 20260505094257 | 58 | 270 | 0.0 | 0.0 | 0.05 | 0.14 | 0.14 | 88 | 1053.0 |
| 20260505094139 | 58 | 270 | 0.0 | 0.0 | 0.06 | 0.14 | 0.14 | 89 | 1053.0 |
| 20260505093140 | 58 | 270 | 0.0 | 0.0 | 0.14 | 0.14 | 0.14 | 87 | 1053.0 |
| 20260505093042 | 58 | 270 | 0.0 | 0.0 | 0.14 | 0.14 | 0.14 | 86 | 1053.1 |
| 20260505092140 | 59 | 270 | 0.0 | 0.0 | 0.14 | 0.14 | 0.14 | 85 | 1053.1 |
| 20260505091142 | 59 | 270 | 0.0 | 0.0 | 0.13 | 0.13 | 0.13 | 83 | 1053.4 |
| 20260505090142 | 60 | 270 | 0.0 | 2.0 | 0.13 | 0.13 | 0.13 | 82 | 1053.8 |
| 20260505085141 | 62 | 301 | 1.0 | 3.0 | 0.12 | 0.12 | 0.12 | 77 | 1053.8 |
| 20260505084140 | 65 | 315 | 3.0 | 5.0 | 0.08 | 0.08 | 0.08 | 67 | 1053.7 |
| 20260505083141 | 66 | 243 | 3.0 | 5.0 | 0.00 | 0.00 | 0.00 | 63 | 1053.6 |
| 20260505082240 | 66 | 315 | 5.0 | 11.0 | 0.00 | 0.00 | 0.00 | 62 | 1053.6 |
| 20260505081340 | 66 | 203 | 0.0 | 4.0 | 0.00 | 0.00 | 0.00 | 62 | 1052.1 |
| 20260505081241 | 66 | 184 | 3.0 | 6.0 | 0.00 | 0.00 | 0.00 | 62 | 1052.2 |
| 20260505080341 | 66 | 45 | 1.0 | 4.0 | 0.00 | 0.00 | 0.00 | 61 | 1052.3 |
| 20260505075439 | 66 | 240 | 0.0 | 1.0 | 0.00 | 0.00 | 0.00 | 61 | 1052.4 |
| 20260505074441 | 66 | 182 | 1.0 | 3.0 | 0.00 | 0.00 | 0.00 | 60 | 1052.4 |
| 20260505073441 | 66 | 200 | 2.0 | 6.0 | 0.00 | 0.00 | 0.00 | 60 | 1052.4 |
| 20260505072539 | 67 | 220 | 2.0 | 4.0 | 0.00 | 0.00 | 0.00 | 61 | 1052.4 |
| 20260505071448 | 67 | 231 | 1.0 | 5.0 | 0.00 | 0.00 | 0.00 | 61 | 1052.5 |
| 20260505071340 | 67 | 173 | 2.0 | 7.0 | 0.00 | 0.00 | 0.00 | 60 | 1052.5 |
| 20260505070358 | 67 | 249 | 1.0 | 3.0 | 0.00 | 0.00 | 0.00 | 60 | 1052.5 |
| 20260505065440 | 67 | 271 | 3.0 | 6.0 | 0.00 | 0.00 | 0.00 | 60 | 1052.3 |
| 20260505063341 | 67 | 225 | 1.0 | 6.0 | 0.00 | 0.00 | 0.00 | 59 | 1052.2 |
| 20260505062340 | 67 | 212 | 2.0 | 7.0 | 0.00 | 0.00 | 0.00 | 59 | 1052.1 |
| 20260505062240 | 67 | 214 | 3.0 | 7.0 | 0.00 | 0.00 | 0.00 | 58 | 1052.2 |
| 20260505061242 | 67 | 257 | 3.0 | 5.0 | 0.00 | 0.00 | 0.00 | 58 | 1052.2 |
| 20260505060340 | 68 | 193 | 2.0 | 4.0 | 0.00 | 0.00 | 0.00 | 59 | 1052.0 |
| 20260505055342 | 68 | 186 | 5.0 | 10.0 | 0.00 | 0.00 | 0.00 | 58 | 1051.9 |
| 20260505054341 | 67 | 208 | 3.0 | 4.0 | 0.00 | 0.00 | 0.00 | 58 | 1051.7 |
| 20260505054241 | 67 | 201 | 2.0 | 5.0 | 0.00 | 0.00 | 0.00 | 59 | 1051.7 |
| 20260505053242 | 68 | 62 | 0.0 | 3.0 | 0.00 | 0.00 | 0.00 | 59 | 1051.6 |
| 20260505052241 | 68 | 48 | 1.0 | 5.0 | 0.00 | 0.00 | 0.00 | 59 | 1051.6 |
| 20260505051242 | 68 | 218 | 3.0 | 6.0 | 0.00 | 0.00 | 0.00 | 58 | 1051.4 |
| 20260505050341 | 68 | 229 | 1.0 | 2.0 | 0.00 | 0.00 | 0.00 | 58 | 1051.3 |
| 20260505041343 | 68 | 186 | 3.0 | 6.0 | 0.00 | 0.00 | 0.00 | 58 | 1051.6 |
| 20260505040343 | 68 | 180 | 0.0 | 1.0 | 0.00 | 0.00 | 0.00 | 57 | 1051.9 |
| 20260505035357 | 68 | 182 | 1.0 | 5.0 | 0.00 | 0.00 | 0.00 | 57 | 1051.9 |
| 20260505033542 | 68 | 187 | 3.0 | 6.0 | 0.00 | 0.00 | 0.00 | 56 | 1051.7 |
| 20260505032557 | 69 | 224 | 1.0 | 7.0 | 0.00 | 0.00 | 0.00 | 55 | 1051.8 |
| 20260505031640 | 69 | 165 | 2.0 | 6.0 | 0.00 | 0.00 | 0.00 | 54 | 1051.9 |
| 20260505030644 | 69 | 225 | 2.0 | 5.0 | 0.00 | 0.00 | 0.00 | 55 | 1051.7 |
| 20260505025641 | 69 | 148 | 0.0 | 3.0 | 0.00 | 0.00 | 0.00 | 55 | 1051.7 |
| 20260505024643 | 69 | 122 | 1.0 | 3.0 | 0.00 | 0.00 | 0.00 | 53 | 1051.4 |
| 20260505024543 | 69 | 139 | 0.0 | 2.0 | 0.00 | 0.00 | 0.00 | 54 | 1051.4 |
| 20260505023543 | 70 | 179 | 2.0 | 5.0 | 0.00 | 0.00 | 0.00 | 52 | 1051.3 |
| 20260505022641 | 70 | 102 | 2.0 | 5.0 | 0.00 | 0.00 | 0.00 | 53 | 1051.2 |
| 20260505021740 | 70 | 153 | 0.0 | 6.0 | 0.00 | 0.00 | 0.00 | 52 | 1051.2 |
| 20260505021641 | 70 | 164 | 3.0 | 6.0 | 0.00 | 0.00 | 0.00 | 53 | 1051.3 |
| 20260505020641 | 70 | 103 | 3.0 | 7.0 | 0.00 | 0.00 | 0.00 | 51 | 1051.1 |
| 20260505015641 | 70 | 199 | 3.0 | 5.0 | 0.00 | 0.00 | 0.00 | 51 | 1050.9 |
| 20260505014739 | 71 | 96 | 1.0 | 4.0 | 0.00 | 0.00 | 0.00 | 50 | 1050.8 |
| 20260505014642 | 71 | 205 | 1.0 | 6.0 | 0.00 | 0.00 | 0.00 | 51 | 1050.8 |
| 20260505013740 | 71 | 169 | 1.0 | 4.0 | 0.00 | 0.00 | 0.00 | 50 | 1050.7 |
| 20260505012757 | 71 | 250 | 1.0 | 4.0 | 0.00 | 0.00 | 0.00 | 50 | 1050.8 |
| 20260505010741 | 72 | 191 | 1.0 | 4.0 | 0.00 | 0.00 | 0.00 | 49 | 1050.3 |
| 20260505010641 | 72 | 215 | 2.0 | 5.0 | 0.00 | 0.00 | 0.00 | 49 | 1050.3 |
| 20260505005642 | 72 | 152 | 1.0 | 3.0 | 0.00 | 0.00 | 0.00 | 48 | 1050.2 |
| 20260505004740 | 73 | 140 | 2.0 | 3.0 | 0.00 | 0.00 | 0.00 | 47 | 1050.3 |
| 20260505003741 | 73 | 175 | 4.0 | 9.0 | 0.00 | 0.00 | 0.00 | 45 | 1050.3 |
| 20260505001840 | 74 | 186 | 2.0 | 5.0 | 0.00 | 0.00 | 0.00 | 45 | 1050.0 |
| 20260505000842 | 75 | 220 | 4.0 | 8.0 | 0.00 | 0.00 | 0.00 | 44 | 1050.1 |
| 20260504235939 | 75 | 228 | 5.0 | 12.0 | 0.00 | 0.00 | 0.00 | 43 | 1049.7 |
| 20260504234942 | 76 | 279 | 2.0 | 6.0 | 0.00 | 0.00 | 0.00 | 43 | 1049.7 |
| 20260504234041 | 76 | 147 | 1.0 | 4.0 | 0.00 | 0.00 | 0.00 | 42 | 1049.8 |
| 20260504232140 | 76 | 358 | 1.0 | 4.0 | 0.00 | 0.00 | 0.00 | 44 | 1050.0 |
| 20260504232039 | 76 | 156 | 3.0 | 7.0 | 0.00 | 0.00 | 0.00 | 43 | 1050.0 |
| 20260504231041 | 76 | 217 | 2.0 | 7.0 | 0.00 | 0.00 | 0.00 | 43 | 1050.3 |
| 20260504230058 | 76 | 186 | 2.0 | 5.0 | 0.00 | 0.00 | 0.00 | 43 | 1050.3 |
| 20260504225042 | 76 | 54 | 1.0 | 3.0 | 0.00 | 0.00 | 0.00 | 44 | 1050.3 |
| 20260504224141 | 75 | 149 | 3.0 | 8.0 | 0.00 | 0.00 | 0.00 | 44 | 1050.3 |
| 20260504222141 | 75 | 185 | 3.0 | 7.0 | 0.00 | 0.00 | 0.00 | 46 | 1050.6 |
| 20260504221240 | 75 | 170 | 4.0 | 8.0 | 0.00 | 0.00 | 0.00 | 45 | 1050.6 |
| 20260504214358 | 70 | 139 | 3.0 | 6.0 | 0.00 | 0.00 | 0.00 | 49 | 1050.3 |
| 20260504211341 | 71 | 88 | 2.0 | 3.0 | 0.00 | 0.00 | 0.00 | 45 | 1053.1 |
| 20260504210339 | 71 | 180 | 0.0 | 2.0 | 0.00 | 0.00 | 0.00 | 46 | 1053.0 |
| 20260504204341 | 72 | 67 | 1.0 | 1.0 | 0.00 | 0.00 | 0.00 | 44 | 1053.2 |
| 20260504203342 | 72 | 183 | 1.0 | 2.0 | 0.00 | 0.00 | 0.00 | 43 | 1053.5 |
| 20260504202440 | 72 | 315 | 0.0 | 0.0 | 0.00 | 0.00 | 0.00 | 44 | 1053.5 |
| 20260504201441 | 73 | 22 | 0.0 | 0.0 | 0.00 | 0.00 | 0.00 | 43 | 1053.3 |
| 20260504200442 | 73 | 285 | 2.0 | 5.0 | 0.00 | 0.00 | 0.00 | 41 | 1053.3 |
| 20260504200341 | 73 | 229 | 0.0 | 0.0 | 0.00 | 0.00 | 0.00 | 42 | 1053.1 |
| 20260504195342 | 73 | 251 | 1.0 | 3.0 | 0.00 | 0.00 | 0.00 | 42 | 1053.1 |
| 20260504194439 | 74 | 182 | 3.0 | 8.0 | 0.00 | 0.00 | 0.00 | 43 | 1052.9 |
| 20260504193441 | 74 | 194 | 4.0 | 9.0 | 0.00 | 0.00 | 0.00 | 42 | 1053.0 |
| 20260504192441 | 74 | 182 | 3.0 | 7.0 | 0.00 | 0.00 | 0.00 | 42 | 1053.0 |
| 20260504191441 | 75 | 219 | 3.0 | 6.0 | 0.00 | 0.00 | 0.00 | 44 | 1052.9 |
| 20260504190440 | 75 | 230 | 3.0 | 7.0 | 0.00 | 0.00 | 0.00 | 47 | 1052.7 |
| 20260504185439 | 74 | 171 | 2.0 | 6.0 | 0.00 | 0.00 | 0.00 | 49 | 1052.4 |
| 20260504183557 | 74 | 158 | 2.0 | 5.0 | 0.00 | 0.00 | 0.00 | 52 | 1052.2 |
| 20260504182640 | 73 | 180 | 0.0 | 1.0 | 0.00 | 0.00 | 0.00 | 52 | 1052.2 |
| 20260504181639 | 73 | 162 | 2.0 | 6.0 | 0.00 | 0.00 | 0.00 | 54 | 1052.7 |
| 20260504175643 | 73 | 201 | 2.0 | 5.0 | 0.00 | 0.00 | 0.00 | 53 | 1052.8 |
| 20260504175557 | 73 | 171 | 2.0 | 4.0 | 0.00 | 0.00 | 0.00 | 54 | 1052.9 |
| 20260504174641 | 73 | 214 | 3.0 | 5.0 | 0.00 | 0.00 | 0.00 | 54 | 1053.0 |
| 20260504173741 | 73 | 165 | 1.0 | 5.0 | 0.00 | 0.00 | 0.00 | 54 | 1053.3 |
| 20260504172743 | 74 | 211 | 3.0 | 8.0 | 0.00 | 0.00 | 0.00 | 54 | 1053.5 |
| 20260504172656 | 74 | 228 | 1.0 | 6.0 | 0.00 | 0.00 | 0.00 | 54 | 1053.4 |
| 20260504170742 | 73 | 171 | 0.0 | 2.0 | 0.00 | 0.00 | 0.00 | 56 | 1054.1 |
| 20260504170642 | 72 | 188 | 0.0 | 3.0 | 0.00 | 0.00 | 0.00 | 55 | 1054.2 |
| 20260504150741 | 71 | 180 | 2.0 | 4.0 | 0.00 | 0.00 | 0.00 | 58 | 1054.5 |
| 20260504140940 | 65 | 82 | 0.0 | 1.0 | 0.00 | 0.00 | 0.00 | 68 | 1055.3 |